STARLINK-5274, 55395

Orbit data source: Space-Track

STARLINK-5274, 55395 is a payload satellite owned by SpaceX/Seattle (US) in LEO that was launched on Tue, 31 Jan 2023 UTC via an FALCON 9 launch vehicle from the Air Force Western Test Range (AFWTR). Payload-class satellites include a variety of spacecraft equipped with specific instruments for various scientific and technological missions. These include communications satellites like Starlink; space stations such as the ISS; scientific satellites like the Hubble; Earth observation satellites from companies like Planet Labs, Umbra, and HawkEye 360; GPS; miniature CubeSats for education and research; and military/defense satellites.

Loading next visibility...
Identifier
55395, 2023-014E
Orbit
LEO
Country
Flag of USUS
Related business
Manufacturer
SpaceX/Seattle
Mission
Operational Commercial Communications
Bus & Motor
STARLINK, Unknown motor
Mass
305 kg wet, ~290 kg dry
Launch date (UTC)
2023-01-31 (3 years ago)
Launch vehicle
FALCON 9
Launch site
Air Force Western Test Range (AFWTR)
Object type
Payload
Rocket body
Debris
Shape & HBR
Box + 1 Pan, 10.1 m
Radar Cross Section
13.562 m², Large (>1 m²)

Expand to show TLE details & history
Last TLE update: 2 days ago

TLE from 2 days ago
0 STARLINK-5274
1 55395U 23014E   26171.39437313  .00000354  00000-0  37465-4 0  9998
2 55395  69.9992 165.3262 0003480 267.6333  92.4427 14.98330782187440
Epoch: 2026-06-20T09:27Z
TLE epoch observation values (Epoch: 2026-06-20T09:27:53.838Z)
Latitude
-0.00008°
Longitude
114.74222°
Altitude
574.581 km
Speed
7.574 km/s
True Right ascension
11h 01m 18s
True Declination
0° 00' 00"
Sunlit
Object was in daylight at epoch
Visualization orbit readout
Latitude
Unknown
Longitude
Unknown
Altitude
Unknown
Speed
Unknown
Apparent Right ascension
Unknown
Apparent Declination
Unknown
Sunlit
N/A
Visualization observer readout
Local Sidereal Time
21:32:36
Azimuth
Unknown
Elevation
Unknown
Doppler factor
Unknown
Orbital elements
Apogee altitude
572.42 km
Perigee altitude
567.584 km
Semi-major axis
6,948.139 km
Eccentricity
0.00035
Inclination
69.9992°
RAAN
165.3262°
Arg. of periapsis
267.6333°
True anomaly
92.48254°
Mean anomaly
92.4427°
Eccentric anomaly
92.46262°
Mean motion
3.74749 °/min
Orbital period
96.06 mins
BSTAR
0.000037465
Loading maneuver chart data...
Computing Atmospheric mass density...

Documentation

Showing up to 5 results
|